• In Deutschland
  • Länderverzeichnis
  • Für 7 Tage
  • Wassertemperatur
  • Satellitenkarten
  • Wetterkarte
  • Widgets
  • user-avatar
    Anmelden

    Stündliche Wetter Warna

    Heute, 25 September, Montag

    Zeit Temperatur Niederschläge Wind Luftdruck Luftfeuchtigkeit
    00:00 +16°C° 0 mm 1 m/S 750 mmHg 68%
    01:00 +16°C° 0 mm 1 m/S 750 mmHg 71%
    02:00 +16°C° 0 mm 1 m/S 750 mmHg 73%
    03:00 +15°C° 0 mm 1 m/S 750 mmHg 73%
    04:00 +15°C° 0 mm 1 m/S 750 mmHg 74%
    05:00 +15°C° 0 mm 2 m/S 750 mmHg 74%
    06:00 +17°C° 0 mm 2 m/S 750 mmHg 70%
    07:00 +18°C° 0 mm 3 m/S 750 mmHg 65%
    08:00 +19°C° 0 mm 3 m/S 750 mmHg 60%
    09:00 +21°C° 0 mm 4 m/S 750 mmHg 55%
    10:00 +22°C° 0 mm 5 m/S 750 mmHg 49%
    11:00 +23°C° 0 mm 6 m/S 750 mmHg 44%
    12:00 +24°C° 0 mm 6 m/S 750 mmHg 45%
    13:00 +24°C° 0 mm 6 m/S 750 mmHg 46%
    14:00 +24°C° 0 mm 7 m/S 749 mmHg 46%
    15:00 +23°C° 0 mm 7 m/S 749 mmHg 50%
    16:00 +22°C° 0 mm 7 m/S 749 mmHg 54%
    17:00 +22°C° 0 mm 7 m/S 749 mmHg 58%
    18:00 +21°C° 0 mm 6 m/S 749 mmHg 64%
    19:00 +20°C° 0 mm 6 m/S 749 mmHg 71%
    20:00 +19°C° 0 mm 5 m/S 749 mmHg 77%
    21:00 +19°C° 0 mm 5 m/S 749 mmHg 80%
    22:00 +17°C° 0 mm 5 m/S 749 mmHg 83%
    23:00 +17°C° 0 mm 5 m/S 749 mmHg 86%

    Morgen, 26 September, Dienstag

    Zeit Temperatur Niederschläge Wind Luftdruck Luftfeuchtigkeit
    00:00 +17°C° 0 mm 4 m/S 748 mmHg 87%
    01:00 +17°C° 0 mm 4 m/S 748 mmHg 88%
    02:00 +15°C° 0 mm 4 m/S 748 mmHg 90%
    03:00 +15°C° 0 mm 4 m/S 748 mmHg 90%
    04:00 +15°C° 0 mm 4 m/S 748 mmHg 91%
    05:00 +15°C° 0 mm 4 m/S 747 mmHg 92%
    06:00 +17°C° 0 mm 4 m/S 748 mmHg 86%
    07:00 +19°C° 0 mm 5 m/S 748 mmHg 80%
    08:00 +20°C° 0 mm 5 m/S 748 mmHg 75%
    09:00 +21°C° 0,3 mm 5 m/S 748 mmHg 70%
    10:00 +22°C° 0,3 mm 6 m/S 748 mmHg 65%
    11:00 +23°C° 0,3 mm 6 m/S 748 mmHg 61%
    12:00 +23°C° 1 mm 6 m/S 748 mmHg 63%
    13:00 +22°C° 1 mm 7 m/S 748 mmHg 65%
    14:00 +22°C° 1 mm 7 m/S 748 mmHg 67%
    15:00 +21°C° 0,5 mm 7 m/S 748 mmHg 68%
    16:00 +21°C° 0,5 mm 7 m/S 748 mmHg 70%
    17:00 +20°C° 0,5 mm 7 m/S 748 mmHg 72%
    18:00 +18°C° 0,3 mm 7 m/S 749 mmHg 73%
    19:00 +18°C° 0,3 mm 7 m/S 749 mmHg 74%
    20:00 +17°C° 0,3 mm 6 m/S 749 mmHg 75%
    21:00 +17°C° 0,1 mm 6 m/S 749 mmHg 75%
    22:00 +17°C° 0,1 mm 6 m/S 750 mmHg 75%
    23:00 +17°C° 0,1 mm 6 m/S 750 mmHg 75%

    übermorgen, 27 September, Mittwoch

    Zeit Temperatur Niederschläge Wind Luftdruck Luftfeuchtigkeit
    00:00 +16°C° 0,1 mm 6 m/S 750 mmHg 76%
    01:00 +16°C° 0,1 mm 6 m/S 750 mmHg 77%
    02:00 +16°C° 0,1 mm 6 m/S 750 mmHg 78%
    03:00 +15°C° 0,1 mm 6 m/S 750 mmHg 78%
    04:00 +15°C° 0,1 mm 6 m/S 750 mmHg 78%
    05:00 +15°C° 0,1 mm 6 m/S 750 mmHg 78%
    06:00 +16°C° 0,1 mm 7 m/S 750 mmHg 75%
    07:00 +16°C° 0,1 mm 7 m/S 751 mmHg 72%
    08:00 +17°C° 0,1 mm 8 m/S 751 mmHg 69%
    09:00 +18°C° 0,1 mm 8 m/S 751 mmHg 66%
    10:00 +18°C° 0,1 mm 8 m/S 752 mmHg 63%
    11:00 +20°C° 0,1 mm 8 m/S 752 mmHg 60%
    12:00 +18°C° 0,1 mm 8 m/S 752 mmHg 61%
    13:00 +18°C° 0,1 mm 8 m/S 752 mmHg 62%
    14:00 +18°C° 0,1 mm 8 m/S 752 mmHg 63%
    15:00 +17°C° 0 mm 8 m/S 753 mmHg 63%
    16:00 +17°C° 0 mm 8 m/S 753 mmHg 63%
    17:00 +17°C° 0 mm 8 m/S 753 mmHg 63%
    18:00 +16°C° 0 mm 7 m/S 753 mmHg 66%
    19:00 +15°C° 0 mm 7 m/S 753 mmHg 69%
    20:00 +15°C° 0 mm 7 m/S 754 mmHg 72%
    21:00 +14°C° 0 mm 6 m/S 754 mmHg 72%
    22:00 +14°C° 0 mm 6 m/S 754 mmHg 72%
    23:00 +14°C° 0 mm 6 m/S 754 mmHg 73%

    28 September, Donnerstag

    Zeit Temperatur Niederschläge Wind Luftdruck Luftfeuchtigkeit
    00:00 +13°C° 0 mm 6 m/S 754 mmHg 73%
    01:00 +13°C° 0 mm 6 m/S 754 mmHg 73%
    02:00 +13°C° 0 mm 6 m/S 753 mmHg 73%
    03:00 +13°C° 0 mm 6 m/S 753 mmHg 72%
    04:00 +13°C° 0 mm 6 m/S 753 mmHg 72%
    05:00 +13°C° 0 mm 6 m/S 753 mmHg 72%
    06:00 +12°C° 0,1 mm 7 m/S 754 mmHg 71%
    07:00 +14°C° 0,1 mm 7 m/S 754 mmHg 69%
    08:00 +15°C° 0,1 mm 8 m/S 754 mmHg 68%
    09:00 +15°C° 0,1 mm 8 m/S 754 mmHg 67%
    10:00 +15°C° 0,1 mm 8 m/S 754 mmHg 66%
    11:00 +16°C° 0,1 mm 8 m/S 754 mmHg 65%
    12:00 +16°C° 0,1 mm 8 m/S 754 mmHg 62%
    13:00 +16°C° 0,1 mm 8 m/S 754 mmHg 60%
    14:00 +17°C° 0,1 mm 8 m/S 754 mmHg 57%
    15:00 +16°C° 0,1 mm 8 m/S 754 mmHg 58%
    16:00 +16°C° 0,1 mm 8 m/S 754 mmHg 58%
    17:00 +16°C° 0,1 mm 8 m/S 754 mmHg 59%
    18:00 +15°C° 0,1 mm 8 m/S 754 mmHg 64%
    19:00 +14°C° 0,1 mm 7 m/S 754 mmHg 68%
    20:00 +12°C° 0,1 mm 7 m/S 754 mmHg 73%
    21:00 +12°C° 0,1 mm 7 m/S 754 mmHg 72%
    22:00 +12°C° 0,1 mm 7 m/S 754 mmHg 71%
    23:00 +11°C° 0,1 mm 7 m/S 753 mmHg 71%

    29 September, Freitag

    Zeit Temperatur Niederschläge Wind Luftdruck Luftfeuchtigkeit
    00:00 +11°C° 0,1 mm 7 m/S 753 mmHg 70%
    01:00 +11°C° 0,1 mm 7 m/S 753 mmHg 69%
    02:00 +11°C° 0,1 mm 7 m/S 753 mmHg 68%
    03:00 +10°C° 0,1 mm 7 m/S 753 mmHg 67%
    04:00 +10°C° 0,1 mm 7 m/S 752 mmHg 66%
    05:00 +10°C° 0,1 mm 7 m/S 752 mmHg 66%
    06:00 +11°C° 0,1 mm 8 m/S 752 mmHg 64%
    07:00 +11°C° 0,1 mm 8 m/S 752 mmHg 63%
    08:00 +12°C° 0,1 mm 8 m/S 752 mmHg 62%
    09:00 +13°C° 0,2 mm 8 m/S 752 mmHg 60%
    10:00 +15°C° 0,2 mm 9 m/S 752 mmHg 58%
    11:00 +15°C° 0,2 mm 9 m/S 752 mmHg 57%
    12:00 +15°C° 0,1 mm 9 m/S 752 mmHg 57%
    13:00 +15°C° 0,1 mm 8 m/S 751 mmHg 57%
    14:00 +15°C° 0,1 mm 8 m/S 751 mmHg 57%
    15:00 +15°C° 0,1 mm 8 m/S 751 mmHg 57%
    16:00 +15°C° 0,1 mm 8 m/S 751 mmHg 56%
    17:00 +15°C° 0,1 mm 8 m/S 751 mmHg 55%
    18:00 +13°C° 0,1 mm 8 m/S 751 mmHg 59%
    19:00 +12°C° 0,1 mm 7 m/S 751 mmHg 63%
    20:00 +11°C° 0,1 mm 6 m/S 751 mmHg 67%
    21:00 +10°C° 0 mm 6 m/S 751 mmHg 67%
    22:00 +10°C° 0 mm 6 m/S 750 mmHg 67%
    23:00 +9°C° 0 mm 6 m/S 750 mmHg 66%

    30 September, Samstag

    Zeit Temperatur Niederschläge Wind Luftdruck Luftfeuchtigkeit
    00:00 +9°C° 0 mm 6 m/S 750 mmHg 64%
    01:00 +9°C° 0 mm 7 m/S 750 mmHg 61%
    02:00 +8°C° 0 mm 7 m/S 750 mmHg 58%
    03:00 +8°C° 0 mm 7 m/S 749 mmHg 58%
    04:00 +8°C° 0 mm 7 m/S 749 mmHg 57%
    05:00 +6°C° 0 mm 7 m/S 749 mmHg 56%
    06:00 +8°C° 0 mm 7 m/S 749 mmHg 54%
    07:00 +9°C° 0 mm 7 m/S 749 mmHg 52%
    08:00 +10°C° 0 mm 8 m/S 749 mmHg 50%
    09:00 +11°C° 0 mm 8 m/S 749 mmHg 46%
    10:00 +13°C° 0 mm 8 m/S 749 mmHg 41%
    11:00 +16°C° 0 mm 7 m/S 749 mmHg 36%
    12:00 +16°C° 0 mm 7 m/S 749 mmHg 34%
    13:00 +17°C° 0 mm 7 m/S 748 mmHg 32%
    14:00 +17°C° 0 mm 6 m/S 748 mmHg 30%
    15:00 +17°C° 0 mm 6 m/S 748 mmHg 31%
    16:00 +16°C° 0 mm 5 m/S 748 mmHg 32%
    17:00 +16°C° 0 mm 5 m/S 748 mmHg 33%
    18:00 +14°C° 0 mm 5 m/S 748 mmHg 37%
    19:00 +13°C° 0 mm 4 m/S 748 mmHg 41%
    20:00 +11°C° 0 mm 4 m/S 749 mmHg 45%
    21:00 +11°C° 0 mm 3 m/S 749 mmHg 47%
    22:00 +10°C° 0 mm 3 m/S 749 mmHg 48%
    23:00 +10°C° 0 mm 3 m/S 749 mmHg 50%
    Mehr zeigen